Location: Beneden-Haastrecht
(52.0012°N, 4.7557°E)
Time: 03:43:03
(UTC+00:00)

SL-4 R/B - Pass Details

Date: 24 October 2020
Orbit: 427 x 665 km, 51.6° (Epoch: 24 November)

Event Time Altitude Azimuth Distance (km) Brightness Sun altitude
Rises 19:40:00 0° 279° (W) 2,487 6.5 -30.0°
Reaches altitude 10° 19:42:05 10° 277° (W) 1,641 5.3 -30.3°
Enters shadow 19:43:14 19° 275° (W) 1,190 4.4 -30.4°
